[[{"header":{"parameterUnit":"m.s-1","parameterCategory":1,"la1":30.2991,"la2":30.254,"lo1":-89.0895,"lo2":-89.0444,"dy":0.0017,"dx":0.0017,"nx":28,"ny":28,"refTime":"2024-02-06T09:00:00:Z","depth":0,"parameterNumber":2,"parameterNumberName":"U-component_of_WINDS"},"data":[0,0,0,0,0,0,0,0,0,0,0,0,0,0,0,0,0,0,0,0,0,0,0,0,0,0,0,0,0,0,0,0,0,0,0,0,0,0,0,0,0,0,0,0,0,0,0,0,0,0,0,0,0,0,0,0,0,0,-3.8334,-3.8337,0,-3.8586,-3.8589,-3.8592,-3.8661,-3.8659,-3.8658,-3.8656,-3.8913,-3.8921,-3.8929,0,0,0,0,0,0,0,0,0,0,0,0,0,-3.7914,-3.7922,-3.8334,-3.8337,-3.834,-3.8586,-3.8589,-3.8593,-3.8661,-3.8659,-3.8657,-3.8656,-3.8911,-3.892,-3.893,0,0,0,0,0,0,0,0,0,0,0,0,0,-3.8124,-3.7924,-3.8334,-3.8404,-3.8413,-3.8585,-3.8589,-3.8593,-3.8661,-3.8659,-3.8657,-3.8655,-3.8907,-3.8919,-3.8931,-3.9051,0,0,-3.8969,-3.8974,0,0,0,0,0,0,0,0,-3.8112,-3.814,-3.8391,-3.84,-3.841,-3.859,-3.8535,-3.8747,-3.8662,-3.8567,-3.8656,-3.8654,-3.8807,-3.8828,-3.888,-3.9063,-3.9074,-3.897,-3.8978,-3.8983,-3.8986,0,0,0,0,0,0,0,-3.8098,-3.8129,-3.8434,-3.8394,-3.8406,-3.8424,-3.8451,-3.8576,-3.8696,-3.8575,-3.8581,-3.861,-3.8812,-3.8868,-3.8886,-3.9078,-3.897,-3.8981,-3.8988,-3.8993,-3.9374,-3.9377,0,0,0,0,0,0,-3.8071,-3.8117,-3.8426,-3.8441,-3.8253,-3.8433,-3.8464,-3.8534,-3.8695,-3.8718,-3.8611,-3.8612,-3.8848,-3.8872,-3.8896,-3.9047,-3.8983,-3.8994,-3.9001,-3.9372,-3.9375,-3.9378,0,0,0,0,0,0,-3.8062,-3.8098,-3.8416,-3.8281,-3.8323,-3.8443,-3.8521,-3.854,-3.8596,-3.8723,-3.8744,-3.8646,-3.8847,-3.8878,-3.9012,-3.9056,-3.9,-3.9011,-3.9368,-3.9373,-3.9377,-3.9349,0,0,0,0,0,0,-3.8049,-3.8094,-3.814,-3.8281,-3.8329,-3.8527,-3.8524,-3.8547,-3.8617,-3.862,-3.8761,-3.8782,-3.8848,-3.8994,-3.9025,-3.9072,-3.9021,-3.9365,-3.937,-3.9375,-3.9346,-3.9351,-3.9356,0,0,0,0,0,-3.8034,-3.8121,-3.8142,-3.8179,-3.8389,-3.853,-3.8557,-3.8632,-3.862,-3.8668,-3.875,-3.8777,-3.9047,-3.9007,-3.9042,-3.9094,-3.9362,-3.9369,-3.9375,-3.9344,-3.935,-3.9356,0,0,0,0,0,0,-3.7981,-3.8141,-3.8165,-3.8301,-3.8401,-3.8541,-3.8603,-3.8636,-3.8741,-3.874,-3.8828,-3.8859,-3.8987,-3.9055,-3.9007,-3.922,-3.9206,-3.9219,-3.917,-3.9177,-3.9182,-3.9161,-3.9031,0,0,0,0,0,-3.7985,-3.8086,-3.8221,-3.8327,-3.8377,-3.8481,-3.8545,-3.8594,-3.8701,-3.8744,-3.8836,-3.8939,-3.9047,-3.9117,-3.9223,-3.9358,-3.939,-3.9412,-3.9416,-3.942,-3.9429,-3.9507,-3.9518,-3.9398,-3.9398,-3.9398,0,0,-3.7994,-3.8094,-3.8152,-3.8319,-3.8403,-3.8505,-3.8516,-3.8624,-3.8701,-3.876,-3.8892,-3.8964,-3.9085,-3.922,-3.9284,-3.928,-3.947,-3.9427,-3.9429,-3.9437,-3.9514,-3.9525,-3.9535,-3.9403,-3.9402,-3.9401,0,0,-3.8063,-3.8149,-3.8248,-3.8332,-3.8459,-3.8529,-3.8552,-3.8689,-3.8738,-3.8873,-3.892,-3.9014,-3.9199,-3.9284,-3.9351,-3.9456,-3.9486,-3.9489,-3.9513,-3.9587,-3.9596,-3.9605,-3.9642,-3.9654,-3.9499,-3.9499,-3.9499,0,-3.8058,-3.8214,-3.8294,-3.84,-3.8472,-3.8534,-3.8635,-3.8713,-3.8868,-3.8916,-3.8911,-3.9146,-3.9231,-3.9387,-3.9414,-3.9467,-3.9497,-3.9471,-3.9589,-3.9598,-3.9608,-3.9644,-3.9658,-3.9498,-3.9499,-3.9499,-3.9499,0,-3.8201,-3.8309,-3.8374,-3.8523,-3.8603,-3.8706,-3.8803,-3.8875,-3.8919,-3.8989,-3.9126,-3.9233,-3.9362,-3.9404,-3.9447,-3.9567,-3.9561,-3.9571,-3.9558,-3.9617,-3.9653,-3.9667,-3.9498,-3.9498,-3.9498,-3.9498,0,0,-3.8239,-3.8434,-3.8456,-3.8525,-3.8672,-3.8757,-3.8864,-3.8992,-3.9052,-3.9158,-3.925,-3.9407,-3.9418,-3.9495,-3.9549,-3.9614,-3.9691,-3.9617,-3.9621,-3.9626,-3.983,-3.982,-3.9834,-3.9714,-3.9717,-3.9719,-3.982,0,-3.8324,-3.8517,-3.8594,-3.875,-3.8851,-3.8913,-3.9007,-3.9107,-3.9177,-3.9274,-3.9352,-3.9461,-3.9468,-3.9515,-3.9583,-3.9667,-3.9733,-3.9662,-3.9799,-3.9803,-3.9763,-3.9853,-3.9842,-3.9932,-3.9834,-3.9837,-3.9839,0,-3.8449,-3.8557,-3.8723,-3.8859,-3.8905,-3.8987,-3.9112,-3.9204,-3.932,-3.9367,-3.9454,-3.9505,-3.9621,-3.9604,-3.9764,-3.9714,-3.9776,-3.9826,-3.9832,-3.9845,-3.9821,-3.9867,-3.9962,-3.9975,-3.9861,-3.986,-3.9858,0,-3.8458,-3.8645,-3.8769,-3.8827,-3.8989,-3.9046,-3.9116,-3.9231,-3.9304,-3.9414,-3.9462,-3.9584,-3.9649,-3.9743,-3.9826,-3.9806,-3.998,-3.9969,-4.0021,-4.0019,-4.0052,-4.0048,-4.0156,-4.0096,-4.0096,-4.0095,-4.0095,0,-3.8543,-3.8642,-3.8776,-3.8851,-3.8965,-3.9055,-3.9165,-3.924,-3.9342,-3.9434,-3.9496,-3.9582,-3.9688,-3.9787,-3.9854,-3.9977,-4.0007,-4.0048,-4.0064,-4.0041,-4.0035,-4.008,-4.0075,-4.0099,-4.0098,-4.0098,-4.0097,0,-3.8571,-3.8664,-3.8803,-3.8947,-3.8986,-3.9063,-3.9186,-3.9263,-3.9338,-3.9454,-3.9487,-3.9604,-3.9725,-3.9818,-3.9975,-4.002,-4.015,-4.0168,-4.011,-4.0118,-4.0164,-4.0158,-4.0303,-4.0326,-4.0251,-4.0252,-4.0252,0,-3.8618,-3.8695,-3.8848,-3.8915,-3.8985,-3.9091,-3.9166,-3.9259,-3.9335,-3.9475,-3.9535,-3.9661,-3.9765,-3.9956,-4.0055,-4.0176,-4.0197,-4.024,-4.0215,-4.019,-4.0196,-4.0189,-4.0197,-4.0241,-4.0242,-4.0242,-4.0242,0,-3.8691,-3.8734,-3.884,-3.8963,-3.9051,-3.9152,-3.9255,-3.9306,-3.9418,-3.95,-3.9625,-3.9706,-3.9868,-3.9991,-4.0124,-4.0197,-4.0238,-4.025,-4.0268,-4.0244,-4.0206,-4.0226,-4.0116,-4.0245,-4.0245,-4.0245,-4.0244,-4.0244,-3.8729,-3.8801,-3.892,-3.9037,-3.9124,-3.9219,-3.9299,-3.9385,-3.949,-3.9628,-3.9678,-3.9806,-3.9924,-4.0106,-4.0181,-4.0283,-4.0285,-4.0311,-4.0318,-4.0322,-4.0319,-4.0192,-4.0308,-4.0308,-4.0308,-4.0308,-4.0308,0,-3.8804,-3.8885,-3.8991,-3.9133,-3.9225,-3.9258,-3.9375,-3.9449,-3.9561,-3.9668,-3.977,-3.9915,-4.0036,-4.0147,-4.0274,-4.0334,-4.0357,-4.0364,-4.0359,-4.0376,-4.0311,-4.0282,-4.0344,-4.0344,-4.0344,-4.0344,-4.0344,-4.0344,-3.8854,-3.8978,-3.9036,-3.9205,-3.9286,-3.9412,-3.9475,-3.9564,-3.965,-3.9808,-3.9909,-3.9981,-4.009,-4.0226,-4.0339,-4.0369,-4.0412,-4.0415,-4.0449,-4.0385,-4.038,-4.0375,-4.0348,-4.0424,-4.0424,-4.0505,-4.0505,-4.0506]},{"header":{"parameterUnit":"m.s-1","parameterCategory":1,"la1":30.2991,"la2":30.254,"lo1":-89.0895,"lo2":-89.0444,"dy":0.0017,"dx":0.0017,"nx":28,"ny":28,"refTime":"2024-02-06T09:00:00:Z","depth":0,"parameterNumber":3,"parameterNumberName":"V-component_of_WINDS"},"data":[0,0,0,0,0,0,0,0,0,0,0,0,0,0,0,0,0,0,0,0,0,0,0,0,0,0,0,0,0,0,0,0,0,0,0,0,0,0,0,0,0,0,0,0,0,0,0,0,0,0,0,0,0,0,0,0,0,0,3.617,3.617,0,3.6141,3.614,3.614,3.6068,3.6066,3.6065,3.6063,3.6033,3.6033,3.6034,0,0,0,0,0,0,0,0,0,0,0,0,0,3.6167,3.6167,3.6171,3.617,3.617,3.6141,3.614,3.614,3.6068,3.6066,3.6064,3.6062,3.6032,3.6033,3.6034,0,0,0,0,0,0,0,0,0,0,0,0,0,3.6156,3.6168,3.6171,3.613,3.6126,3.6141,3.614,3.614,3.6068,3.6066,3.6064,3.6062,3.6032,3.6033,3.6034,3.6085,0,0,3.6037,3.6037,0,0,0,0,0,0,0,0,3.6157,3.6156,3.6137,3.6133,3.6129,3.6105,3.6128,3.6121,3.6069,3.609,3.6063,3.606,3.6059,3.6057,3.6057,3.6083,3.6082,3.6037,3.6037,3.6038,3.6038,0,0,0,0,0,0,0,3.6158,3.6157,3.6159,3.6136,3.6132,3.6114,3.611,3.6126,3.6088,3.6088,3.6083,3.608,3.6056,3.6056,3.6055,3.6082,3.6037,3.6037,3.6038,3.6038,3.615,3.6152,0,0,0,0,0,0,3.6164,3.6158,3.616,3.6158,3.6137,3.6116,3.6112,3.6115,3.6087,3.6081,3.6082,3.6077,3.6055,3.6054,3.6054,3.6112,3.6038,3.6038,3.6039,3.6147,3.615,3.6153,0,0,0,0,0,0,3.6164,3.6165,3.6161,3.6157,3.6155,3.6119,3.6123,3.6116,3.6115,3.6083,3.6076,3.6089,3.6054,3.6053,3.6078,3.611,3.6039,3.604,3.6145,3.6148,3.6152,3.6228,0,0,0,0,0,0,3.6164,3.6165,3.6184,3.6157,3.6155,3.6185,3.6125,3.6117,3.6117,3.611,3.6087,3.6081,3.6052,3.6077,3.6079,3.6109,3.604,3.6141,3.6146,3.615,3.6222,3.6233,3.6243,0,0,0,0,0,3.6165,3.6206,3.6185,3.6185,3.6177,3.6187,3.6185,3.6151,3.612,3.6138,3.6118,3.6082,3.6107,3.608,3.6082,3.6113,3.6139,3.6145,3.615,3.6217,3.6231,3.6243,0,0,0,0,0,0,3.6236,3.6202,3.6178,3.6212,3.6203,3.6175,3.6196,3.6166,3.6166,3.6159,3.6116,3.6112,3.6143,3.6131,3.6102,3.6162,3.6117,3.6123,3.6168,3.6181,3.6191,3.6192,3.6041,0,0,0,0,0,3.6257,3.6267,3.6236,3.6269,3.6266,3.6233,3.6235,3.621,3.6198,3.6194,3.6175,3.6166,3.6171,3.6176,3.6179,3.6221,3.6215,3.6244,3.6254,3.6263,3.6268,3.629,3.6302,3.6171,3.6171,3.6171,0,0,3.6297,3.628,3.6289,3.6283,3.6273,3.6285,3.623,3.6244,3.6253,3.6196,3.6218,3.6205,3.6192,3.6226,3.624,3.6216,3.6304,3.627,3.6277,3.6277,3.6297,3.6309,3.632,3.6175,3.6174,3.6173,0,0,3.6378,3.6366,3.6392,3.6384,3.6369,3.6347,3.6354,3.6331,3.6319,3.6341,3.6299,3.631,3.632,3.6312,3.631,3.6391,3.6358,3.6393,3.6447,3.6469,3.648,3.6489,3.6517,3.6528,3.6399,3.6399,3.6399,0,3.643,3.6446,3.641,3.6427,3.6427,3.6377,3.6404,3.6398,3.6385,3.6386,3.6361,3.6374,3.6361,3.6393,3.6413,3.6413,3.6419,3.6394,3.6481,3.649,3.6497,3.6524,3.6535,3.6404,3.6403,3.6403,3.6402,0,3.6512,3.6524,3.6547,3.6536,3.6539,3.6561,3.6528,3.6535,3.651,3.6491,3.6515,3.6499,3.6499,3.6505,3.648,3.6534,3.652,3.6489,3.6443,3.6515,3.6539,3.6549,3.641,3.6408,3.6407,3.6406,0,0,3.6634,3.6605,3.6614,3.6609,3.6591,3.6599,3.662,3.662,3.6627,3.6621,3.6637,3.6649,3.662,3.6617,3.6592,3.6612,3.6677,3.6578,3.6577,3.6596,3.6734,3.6757,3.6769,3.6656,3.6658,3.6659,3.6735,0,3.6709,3.6742,3.6711,3.675,3.6761,3.6716,3.6734,3.6725,3.6709,3.6716,3.6698,3.6706,3.6668,3.6667,3.6684,3.6665,3.6704,3.6659,3.667,3.6671,3.6673,3.6782,3.6805,3.6878,3.6745,3.6746,3.6747,0,3.68,3.6798,3.6839,3.6819,3.6823,3.684,3.6838,3.6845,3.6835,3.6822,3.6821,3.679,3.681,3.6768,3.6794,3.6765,3.6768,3.676,3.6762,3.676,3.6712,3.6782,3.69,3.6911,3.6762,3.6761,3.676,0,3.6884,3.6893,3.6918,3.6915,3.6893,3.6906,3.6898,3.6885,3.6888,3.6887,3.6888,3.689,3.689,3.6892,3.6864,3.6835,3.6894,3.6849,3.6884,3.6884,3.6896,3.6896,3.7015,3.6901,3.6901,3.6901,3.69,0,3.697,3.6996,3.6956,3.6971,3.7,3.6965,3.6995,3.6982,3.6972,3.6984,3.6946,3.6959,3.6921,3.693,3.6908,3.6934,3.6935,3.6924,3.6918,3.6927,3.6928,3.6927,3.6921,3.6904,3.6903,3.6902,3.6902,0,3.7068,3.7042,3.7066,3.7044,3.7039,3.7062,3.7043,3.7057,3.7039,3.7055,3.7057,3.7029,3.7038,3.701,3.7015,3.7,3.7038,3.7024,3.7041,3.7036,3.7072,3.7069,3.7194,3.7209,3.7086,3.7088,3.7089,0,3.7124,3.7143,3.7123,3.7129,3.7123,3.7133,3.7135,3.7103,3.7107,3.7098,3.7113,3.7119,3.7122,3.7139,3.7119,3.7122,3.7107,3.7151,3.7107,3.7116,3.7107,3.7106,3.7108,3.716,3.7161,3.7162,3.7163,0,3.7226,3.7212,3.7217,3.7218,3.7222,3.7222,3.7218,3.7226,3.7191,3.7198,3.7206,3.7209,3.7214,3.7221,3.722,3.7212,3.7182,3.7178,3.7186,3.7194,3.7203,3.7198,3.7064,3.7174,3.7173,3.7173,3.7172,3.7171,3.7303,3.7319,3.7308,3.7315,3.7309,3.7308,3.732,3.7304,3.731,3.7312,3.7293,3.7306,3.7297,3.7293,3.7288,3.7299,3.7278,3.729,3.7293,3.7296,3.7302,3.7203,3.7299,3.7298,3.7298,3.7298,3.7297,0,3.7403,3.7394,3.7401,3.7398,3.7404,3.7376,3.7372,3.7379,3.7391,3.7385,3.7389,3.74,3.7406,3.7388,3.7392,3.7404,3.739,3.7406,3.7404,3.7402,3.732,3.7312,3.7416,3.7416,3.7416,3.7416,3.7416,3.7416,3.7455,3.748,3.7465,3.7487,3.7478,3.7491,3.7491,3.7489,3.7484,3.7498,3.7503,3.7492,3.7481,3.7484,3.7489,3.7484,3.7487,3.7507,3.7497,3.742,3.7408,3.7397,3.7389,3.7508,3.7508,3.7578,3.7579,3.7579]}]]